TOKI (42820 NORAD) Tracking and Keplerian Element Data

This shows tracking and keplerian element data for the satellite.

Feedback or suggestion? Click here.




ElementValue
Catalog42820
NameTOKI
Epoch Orbit7735
Epoch Day317.4879632
Epoch Year2018
RAAN317.2069
Inclination51.6341
Eccentricity0.0004381
Argument of Perigee38.8709
Mean Anonmoly321.2605
Mean Motion15.76168
Decay Rate0.00043289
L11 42820U 98067MU 18317.48796320 .00043289 00000-0 27323-3 0 9991
L22 42820 51.6341 317.2069 0004381 38.8709 321.2605 15.76168000 77352

Live tracking and technical data element details for TOKI (NORAD 42820). TOKI can be tracked NOW for your location showing map with azimuth and elevation plus other details from your city location.

Track the satellite on the map from your city or location and see movement details for azimuth, elevation, latitude, longitude, range, height, and movement on the map or in text.







IsCatalogInMostPopularTable: catalog: 42820, numindb: 154
Update: records affected: 1



GetName: 42820 TOKI

Hit Count: updated at: Wed, 14 Nov 2018 15:15:41 GMT